TimePDT,TemperatureF,Dew PointF,Humidity,Sea Level PressureIn,VisibilityMPH,Wind Direction,Wind SpeedMPH,Gust SpeedMPH,PrecipitationIn,Events,Conditions,WindDirDegrees,DateUTC
12:22 AM,48.2,39.2,71,30.16,10.0,SSE,4.6,-,N/A,,Partly Cloudy,160,2013-04-17 07:22:00
12:54 AM,46.9,42.1,83,30.20,8.0,South,3.5,-,N/A,,Partly Cloudy,180,2013-04-17 07:54:00
1:54 AM,44.1,39.0,82,30.20,9.0,ESE,3.5,-,N/A,,Clear,110,2013-04-17 08:54:00
2:54 AM,43.0,39.0,86,30.20,10.0,ESE,3.5,-,N/A,,Clear,110,2013-04-17 09:54:00
3:54 AM,44.1,39.0,82,30.21,10.0,Variable,3.5,-,N/A,,Clear,0,2013-04-17 10:54:00
4:54 AM,41.0,34.0,76,30.21,10.0,East,5.8,-,N/A,,Clear,90,2013-04-17 11:54:00
5:54 AM,41.0,34.0,76,30.22,10.0,East,5.8,-,N/A,,Clear,90,2013-04-17 12:54:00
7:54 AM,48.9,37.0,64,30.28,10.0,ENE,3.5,-,N/A,,Clear,60,2013-04-17 14:54:00
8:54 AM,55.9,37.0,49,30.29,10.0,Calm,Calm,-,N/A,,Clear,0,2013-04-17 15:54:00
9:54 AM,57.9,35.1,42,30.30,10.0,Variable,4.6,-,N/A,,Clear,0,2013-04-17 16:54:00
10:54 AM,59.0,36.0,42,30.30,10.0,NW,8.1,-,N/A,,Clear,310,2013-04-17 17:54:00
11:54 AM,57.0,42.1,57,30.30,10.0,West,11.5,17.3,N/A,,Clear,270,2013-04-17 18:54:00
12:54 PM,57.9,39.0,49,30.28,10.0,West,15.0,-,N/A,,Clear,270,2013-04-17 19:54:00
1:54 PM,57.9,39.0,49,30.27,10.0,West,18.4,23.0,N/A,,Clear,270,2013-04-17 20:54:00
2:54 PM,60.1,37.9,44,30.26,10.0,West,13.8,23.0,N/A,,Clear,280,2013-04-17 21:54:00
3:54 PM,59.0,37.9,46,30.25,10.0,West,15.0,24.2,N/A,,Clear,260,2013-04-17 22:54:00
4:54 PM,57.0,37.9,49,30.25,10.0,West,18.4,26.5,N/A,,Clear,280,2013-04-17 23:54:00
5:54 PM,59.0,33.1,38,30.25,10.0,WSW,6.9,-,N/A,,Clear,240,2013-04-18 00:54:00
6:54 PM,57.0,34.0,42,30.25,10.0,West,15.0,21.9,N/A,,Clear,260,2013-04-18 01:54:00
7:54 PM,55.0,35.1,47,30.25,10.0,SE,4.6,-,N/A,,Clear,130,2013-04-18 02:54:00
8:54 PM,55.0,35.1,47,30.27,10.0,South,8.1,-,N/A,,Clear,190,2013-04-18 03:54:00
9:54 PM,54.0,32.0,43,30.28,10.0,SE,4.6,-,N/A,,Clear,140,2013-04-18 04:54:00
10:54 PM,52.0,32.0,47,30.29,10.0,Variable,4.6,-,N/A,,Clear,0,2013-04-18 05:54:00
11:54 PM,48.9,34.0,56,30.28,10.0,Calm,Calm,-,N/A,,Clear,0,2013-04-18 06:54:00